Cody, WY

5:12 PM MST on February 19, 2017 (GMT -0700)
Yellowstone Regional

Weather History for KCOD - May, 2013

Change the Weather History Date:

Thursday, May 23, 2013

  Actual Average Record
Temperature  
Mean Temperature 58 °F -  
Max Temperature 69 °F 70 °F 85 °F (1931)
Min Temperature 46 °F 43 °F 26 °F (2002)
Degree Days  
Heating Degree Days 8    
Growing Degree Days 8 (Base 50)    
Moisture  
Dew Point 48 °F    
Average Humidity 76    
Maximum Humidity 100    
Minimum Humidity 43    
Precipitation  
Precipitation 0.03 in - - ()
Sea Level Pressure  
Sea Level Pressure 29.81 in    
Wind  
Wind Speed 5 mph (NE)    
Max Wind Speed 20 mph    
Max Gust Speed 25 mph    
Visibility 10 miles    
Events Thunderstorm    
Averages and records for this station are not official NWS values.
T = Trace of Precipitation, MM = Missing Value Source: NWS Daily Summary

Daily Weather History Graph

Daily Weather History Graph

Search for Another Location

Airport or City:

Trip Planner

Search our weather history database for the weather conditions in past years. The results will help you decide how hot, cold, wet, or windy it might be!

Date:

Astronomy

May. 23, 2013 Rise Set
Actual Time 5:40 AM MDT 8:45 PM MDT
Civil Twilight 5:05 AM MDT 9:20 PM MDT
Nautical Twilight 4:20 AM MDT 10:05 PM MDT
Astronomical Twilight 3:26 AM MDT 11:00 PM MDT
Moon 7:19 PM MDT (5/23) 4:31 AM MDT (5/23)
Length of Visible Light 16h 15m
Length of Day
15h 05m
Waxing Gibbous, 97% of the Moon is Illuminated
May 23
Waxing Gibbous
May 24
Full
May 31
Last Quarter
Jun 8
New
Jun 16
First Quarter

Hourly Weather History & Observations

Time (MDT) Temp. Dew Point Humidity Pressure Visibility Wind Dir Wind Speed Gust Speed Precip Events Conditions
12:35 AM 51.8 °F 48.2 °F 88% 29.89 in 10.0 mi Calm Calm - N/A   Overcast
12:55 AM 51.8 °F 48.2 °F 88% 29.88 in 10.0 mi Calm Calm - N/A   Overcast
1:15 AM 50.0 °F 48.2 °F 94% 29.86 in 10.0 mi Calm Calm - N/A   Mostly Cloudy
1:35 AM 50.0 °F 48.2 °F 94% 29.87 in 10.0 mi Calm Calm - N/A   Scattered Clouds
1:55 AM 50.0 °F 48.2 °F 94% 29.87 in 10.0 mi NNE 6.9 mph - N/A   Overcast
2:15 AM 48.2 °F 48.2 °F 100% 29.85 in 10.0 mi NNE 9.2 mph - N/A   Overcast
2:35 AM 48.2 °F 46.4 °F 93% 29.86 in 10.0 mi NNE 6.9 mph - N/A   Overcast
2:55 AM 48.2 °F 46.4 °F 93% 29.87 in 10.0 mi NNE 4.6 mph - N/A   Mostly Cloudy
3:15 AM 48.2 °F 46.4 °F 93% 29.87 in 10.0 mi NE 4.6 mph - N/A   Scattered Clouds
3:35 AM 48.2 °F 46.4 °F 93% 29.86 in 10.0 mi NE 5.8 mph - N/A   Mostly Cloudy
3:55 AM 48.2 °F 46.4 °F 93% 29.87 in 10.0 mi Calm Calm - N/A   Overcast
4:15 AM 48.2 °F 46.4 °F 93% 29.86 in 10.0 mi Calm Calm - N/A   Overcast
4:35 AM 48.2 °F 46.4 °F 93% 29.86 in 10.0 mi Calm Calm - N/A   Scattered Clouds
4:55 AM 46.4 °F 46.4 °F 100% 29.86 in 10.0 mi Calm Calm - N/A   Clear
5:15 AM 46.4 °F 46.4 °F 100% 29.87 in 10.0 mi Calm Calm - N/A   Partly Cloudy
5:55 AM 46.4 °F 46.4 °F 100% 29.87 in 10.0 mi Calm Calm - N/A   Overcast
6:15 AM 46.4 °F 46.4 °F 100% 29.87 in 10.0 mi Calm Calm - N/A   Overcast
6:35 AM 48.2 °F 46.4 °F 93% 29.87 in 10.0 mi Calm Calm - N/A   Overcast
6:55 AM 48.2 °F 46.4 °F 93% 29.87 in 10.0 mi Calm Calm - N/A   Overcast
7:15 AM 48.2 °F 48.2 °F 100% 29.87 in 10.0 mi Calm Calm - N/A   Overcast
7:35 AM 50.0 °F 48.2 °F 94% 29.86 in 10.0 mi ENE 3.5 mph - N/A   Scattered Clouds
7:55 AM 51.8 °F 48.2 °F 88% 29.86 in 10.0 mi Calm Calm - N/A   Mostly Cloudy
8:15 AM 51.8 °F 48.2 °F 88% 29.86 in 10.0 mi East 4.6 mph - N/A   Scattered Clouds
8:35 AM 53.6 °F 48.2 °F 82% 29.86 in 10.0 mi NE 3.5 mph - N/A   Clear
8:55 AM 55.4 °F 48.2 °F 77% 29.85 in 10.0 mi SSE 10.4 mph - N/A   Scattered Clouds
9:15 AM 57.2 °F 46.4 °F 67% 29.85 in 10.0 mi SSE 13.8 mph - N/A   Partly Cloudy
9:55 AM 59.0 °F 46.4 °F 63% 29.84 in 10.0 mi SE 16.1 mph - N/A   Partly Cloudy
10:35 AM 60.8 °F 46.4 °F 59% 29.83 in 10.0 mi SE 11.5 mph 17.3 mph N/A   Partly Cloudy
10:55 AM 60.8 °F 46.4 °F 59% 29.83 in 10.0 mi SE 10.4 mph - N/A   Mostly Cloudy
11:15 AM 60.8 °F 46.4 °F 59% 29.82 in 10.0 mi ESE 15.0 mph 19.6 mph N/A   Mostly Cloudy
11:35 AM 62.6 °F 48.2 °F 59% 29.82 in 10.0 mi East 10.4 mph 17.3 mph N/A   Scattered Clouds
11:55 AM 62.6 °F 46.4 °F 55% 29.82 in 10.0 mi SE 12.7 mph 18.4 mph N/A   Mostly Cloudy
12:15 PM 62.6 °F 46.4 °F 55% 29.82 in 10.0 mi ESE 8.1 mph 18.4 mph N/A   Mostly Cloudy
12:35 PM 62.6 °F 46.4 °F 55% 29.81 in 10.0 mi SSE 12.7 mph 17.3 mph N/A   Mostly Cloudy
12:55 PM 64.4 °F 46.4 °F 52% 29.80 in 10.0 mi SE 8.1 mph - N/A   Mostly Cloudy
1:15 PM 64.4 °F 46.4 °F 52% 29.80 in 10.0 mi SE 5.8 mph 18.4 mph N/A   Mostly Cloudy
1:35 PM 64.4 °F 46.4 °F 52% 29.79 in 10.0 mi SE 15.0 mph - N/A   Mostly Cloudy
1:55 PM 66.2 °F 46.4 °F 49% 29.78 in 10.0 mi SSE 11.5 mph - N/A   Mostly Cloudy
2:15 PM 66.2 °F 46.4 °F 49% 29.77 in 10.0 mi SE 5.8 mph - N/A   Mostly Cloudy
2:35 PM 68.0 °F 44.6 °F 43% 29.76 in 10.0 mi NNE 3.5 mph - N/A   Scattered Clouds
2:55 PM 69.8 °F 46.4 °F 43% 29.76 in 10.0 mi East 5.8 mph - N/A   Partly Cloudy
3:35 PM 69.8 °F 46.4 °F 43% 29.74 in 10.0 mi NE 6.9 mph - N/A   Partly Cloudy
3:55 PM 66.2 °F 46.4 °F 49% 29.74 in 10.0 mi NNE 8.1 mph - N/A   Mostly Cloudy
4:35 PM 64.4 °F 50.0 °F 59% 29.74 in 10.0 mi NNW 13.8 mph - N/A Thunderstorm Overcast
4:55 PM 62.6 °F 50.0 °F 63% 29.73 in 10.0 mi North 17.3 mph - N/A Thunderstorm Overcast
5:35 PM 59.0 °F 51.8 °F 77% 29.73 in 10.0 mi North 18.4 mph - N/A   Mostly Cloudy
6:15 PM 57.2 °F 50.0 °F 77% 29.72 in 10.0 mi North 19.6 mph 25.3 mph N/A   Partly Cloudy
6:35 PM 57.2 °F 50.0 °F 77% 29.72 in 10.0 mi North 12.7 mph 24.2 mph N/A   Mostly Cloudy
6:55 PM 57.2 °F 48.2 °F 72% 29.74 in 10.0 mi North 13.8 mph 18.4 mph N/A   Mostly Cloudy
7:15 PM 57.2 °F 48.2 °F 72% 29.73 in 10.0 mi North 16.1 mph - N/A   Mostly Cloudy
7:35 PM 57.2 °F 48.2 °F 72% 29.74 in 10.0 mi NNW 11.5 mph - N/A Thunderstorm Overcast
7:55 PM 57.2 °F 48.2 °F 72% 29.75 in 10.0 mi NW 10.4 mph - N/A   Mostly Cloudy
8:15 PM 57.2 °F 48.2 °F 72% 29.76 in 10.0 mi NNW 12.7 mph - N/A Thunderstorm Mostly Cloudy
8:35 PM 55.4 °F 48.2 °F 77% 29.78 in 10.0 mi NNW 9.2 mph - N/A Thunderstorm Thunderstorm
8:55 PM 55.4 °F 48.2 °F 77% 29.78 in 10.0 mi NW 8.1 mph - 0.01 in   Overcast
9:15 PM 55.4 °F 50.0 °F 82% 29.78 in 10.0 mi NNW 6.9 mph - 0.01 in Thunderstorm Overcast
9:35 PM 53.6 °F 50.0 °F 88% 29.79 in 10.0 mi Calm Calm - 0.02 in Thunderstorm Overcast
9:55 PM 55.4 °F 50.0 °F 82% 29.78 in 10.0 mi NNW 10.4 mph - 0.02 in   Overcast
10:15 PM 53.6 °F 50.0 °F 88% 29.78 in 10.0 mi NW 4.6 mph - N/A Thunderstorm Overcast
10:35 PM 55.4 °F 48.2 °F 77% 29.80 in 10.0 mi West 6.9 mph - N/A   Overcast
10:55 PM 55.4 °F 46.4 °F 72% 29.79 in 10.0 mi West 4.6 mph - N/A   Overcast
11:35 PM 51.8 °F 48.2 °F 88% 29.79 in 10.0 mi NNE 8.1 mph - N/A   Mostly Cloudy
11:55 PM 51.8 °F 48.2 °F 88% 29.79 in 10.0 mi NE 9.2 mph - N/A   Mostly Cloudy